(210788) = 2001 DW77

Discovered at Kitt Peak on 2001-02-22 by Spacewatch.

Orbit

Orbit type: Main Belt

Note: WebGL enabled browser required.

epoch2024-03-31.0
epoch JD2460400.5
perihelion date2025-12-24.37574
perihelion JD2461033.87574
argument of perihelion (°)327.99310
ascending node (°)329.07098
inclination (°)5.77225
eccentricity0.1393351
perihelion distance (AU)2.1230122
Tisserand w.r.t. Jupiter3.5
ΔV w.r.t. Earth (km/sec)9.3
semimajor axis (AU)2.4667117
mean anomaly (°)198.86582
mean daily motion (°/day)0.25440540
aphelion distance (AU)2.810
period (years)3.87
P-vector [x]0.45636801
P-vector [y]-0.79369692
P-vector [z]-0.40221068
Q-vector [x]0.88828829
Q-vector [y]0.38013360
Q-vector [z]0.25776415
absolute magnitude16.79
phase slope0.15
uncertainty0
referenceMPEC 2024-C163
observations used466
oppositions15
arc length (days)8411
first opposition used2001
last opposition used2024
residual rms (arc-secs)0.69
perturbers coarse indicatorM-v
perturbers precise indicator003Ek
first observation date used2001-02-02.0
last observation date used2024-02-13.0
computer nameMPCLINUX
JD of orbit computation2456966.875647
perihelion JD uncertainty (days)9.1807E-05
argument of perihelion uncertainty (°)3.9331E-05
ascending node uncertainty (°)2.8197E-05
inclination uncertainty (°)8.2257E-06
eccentricity uncertainty 6.8043E-08
perihelion distance uncertainty (AU)1.6805E-07
Minimum Orbit Intersection Distances (in AU)
for orbit epoch: 2460200.5, reference: E2024-CG3
Mercury1.67402
Venus1.39532
Earth1.1096
Mars0.70371
Jupiter2.38969
Saturn6.28055
Uranus15.7268
Neptune27.2801

Observations

481 total observations over interval: 2001 02 02.36660 – 2024 02 13.271736
These data are available for download (format description).

Date (UT) J2000 RA J2000 Dec Magn Location Ref
2001 02 02.36660 09 43 32.95 +15 15 52.1 21.5 V 691 – Steward Observatory, Kitt Peak-Spacewatch MPS 27106
2001 02 02.38841 09 43 31.65 +15 15 55.9 21.7 V 691 – Steward Observatory, Kitt Peak-Spacewatch MPS 27106
2001 02 02.41666 09 43 29.93 +15 16 01.5 21.6 V 691 – Steward Observatory, Kitt Peak-Spacewatch MPS 27106
2001 02 13.17794 09 32 34.19 +15 49 41.5 21.6 V 691 – Steward Observatory, Kitt Peak-Spacewatch MPS 27106
2001 02 13.19939 09 32 32.81 +15 49 45.0 22.0 V 691 – Steward Observatory, Kitt Peak-Spacewatch MPS 27106
2001 02 13.22094 09 32 31.46 +15 49 49.1 21.5 V 691 – Steward Observatory, Kitt Peak-Spacewatch MPS 27106
2001 02 22.18348 09 23 32.13 +16 14 25.1 21.7 V 691 – Steward Observatory, Kitt Peak-Spacewatch MPS 27106
2001 02 22.18923 09 23 31.81 +16 14 25.4 21.7 V 691 – Steward Observatory, Kitt Peak-Spacewatch MPS 27106
2001 02 22.19495 09 23 31.45 +16 14 26.5 21.8 V 691 – Steward Observatory, Kitt Peak-Spacewatch MPS 27106
2001 02 23.26173 09 22 30.11 +16 17 00.7 21.8 V 691 – Steward Observatory, Kitt Peak-Spacewatch MPS 27106
2001 02 23.26738 09 22 29.79 +16 17 01.3 21.5 V 691 – Steward Observatory, Kitt Peak-Spacewatch MPS 27106
2001 02 23.27318 09 22 29.40 +16 17 02.2 21.6 V 691 – Steward Observatory, Kitt Peak-Spacewatch MPS 27106
2001 02 27.25357 09 18 49.61 +16 25 46.1 21.9 V 691 – Steward Observatory, Kitt Peak-Spacewatch MPS 27106
2001 02 27.26143 09 18 49.19 +16 25 47.1 21.9 V 691 – Steward Observatory, Kitt Peak-Spacewatch MPS 27106
2001 02 27.27277 09 18 48.52 +16 25 47.9 21.7 V 691 – Steward Observatory, Kitt Peak-Spacewatch MPS 27106
2003 11 19.27193 03 49 22.12 +29 33 21.4 19.4   704 – Lincoln Laboratory ETS, New Mexico MPS 133083
2003 11 19.28435 03 49 21.25 +29 33 19.8 19.5   704 – Lincoln Laboratory ETS, New Mexico MPS 133083
2003 11 19.29702 03 49 20.41 +29 33 17.4 19.2   704 – Lincoln Laboratory ETS, New Mexico MPS 133083
2003 11 19.30972 03 49 19.53 +29 33 15.4 19.2   704 – Lincoln Laboratory ETS, New Mexico MPS 133083
2003 11 20.25049 03 48 15.89 +29 30 14.6 20.4 V 691 – Steward Observatory, Kitt Peak-Spacewatch MPS 133083
2003 11 20.27747 03 48 13.99 +29 30 09.6 20.3 V 691 – Steward Observatory, Kitt Peak-Spacewatch MPS 133083
2003 11 20.30551 03 48 12.04 +29 30 04.0 20.4 V 691 – Steward Observatory, Kitt Peak-Spacewatch MPS 133083
2005 02 09.41573 10 28 07.12 +09 29 20.7 20.1 R G96 – Mt. Lemmon Survey MPS 133083
2005 02 09.42624 10 28 06.50 +09 29 22.6 19.9 R G96 – Mt. Lemmon Survey MPS 133083
2005 02 09.43674 10 28 05.91 +09 29 24.4 20.0 R G96 – Mt. Lemmon Survey MPS 133083
2005 02 09.44727 10 28 05.43 +09 29 25.8 20.7 R G96 – Mt. Lemmon Survey MPS 133083
2005 03 08.27715 10 02 06.71 +11 00 40.9 20.1 R G96 – Mt. Lemmon Survey MPS 133083
2005 03 08.28322 10 02 06.36 +11 00 42.0 20.1 R G96 – Mt. Lemmon Survey MPS 133083
2005 03 08.28927 10 02 06.03 +11 00 42.7 20.3 R G96 – Mt. Lemmon Survey MPS 133083
2005 03 08.29532 10 02 05.69 +11 00 44.0 20.1 R G96 – Mt. Lemmon Survey MPS 133083
2005 04 06.22008 09 45 09.52 +11 44 02.0 21.1 R G96 – Mt. Lemmon Survey MPS 133083
2005 04 06.22604 09 45 09.37 +11 44 02.7 20.7 R G96 – Mt. Lemmon Survey MPS 133083
2005 04 06.23200 09 45 09.26 +11 44 02.4 20.1 R G96 – Mt. Lemmon Survey MPS 133083
2005 04 06.23806 09 45 09.21 +11 44 03.5 21.3 R G96 – Mt. Lemmon Survey MPS 133083
2007 12 14.25155 04 30 45.19 +30 40 25.0 19.7   704 – Lincoln Laboratory ETS, New Mexico MPS 231290
2007 12 14.26447 04 30 44.40 +30 40 21.2 20.4   704 – Lincoln Laboratory ETS, New Mexico MPS 231290
2007 12 14.27758 04 30 43.47 +30 40 18.2 20.4   704 – Lincoln Laboratory ETS, New Mexico MPS 231290
2007 12 16.34671 04 28 32.30 +30 32 36.1 19.9 V G96 – Mt. Lemmon Survey MPS 231711
2007 12 16.35499 04 28 31.80 +30 32 34.1 20.1 V G96 – Mt. Lemmon Survey MPS 231711
2007 12 16.36321 04 28 31.26 +30 32 32.1 19.9 V G96 – Mt. Lemmon Survey MPS 231711
2007 12 16.37141 04 28 30.72 +30 32 30.4 19.9 V G96 – Mt. Lemmon Survey MPS 231711
2008 01 01.97233 04 14 30.73 +29 23 48.5 20.3 R 628 – Mulheim-Ruhr MPS 232548
2008 01 02.01471 04 14 29.20 +29 23 39.4 19.6 R 628 – Mulheim-Ruhr MPS 232548
2009 03 16.33722 10 46 41.66 +04 49 04.1 20.5 V G96 – Mt. Lemmon Survey MPS 280007
2009 03 16.34553 10 46 41.16 +04 49 06.0 20.4 V G96 – Mt. Lemmon Survey MPS 280007
2009 03 16.36182 10 46 40.26 +04 49 10.2 20.7 V G96 – Mt. Lemmon Survey MPS 280007
2009 03 29.20755 10 36 07.88 +05 32 19.4 20.5 V G96 – Mt. Lemmon Survey MPS 282467
2009 03 29.21500 10 36 07.59 +05 32 21.5 19.7 V G96 – Mt. Lemmon Survey MPS 282467
2009 03 29.22248 10 36 07.23 +05 32 21.6 20.4 V G96 – Mt. Lemmon Survey MPS 282467
2009 03 29.22996 10 36 06.91 +05 32 22.9 20.8 V G96 – Mt. Lemmon Survey MPS 282467
2010 07 13.34050 21 18 52.38 -20 23 40.5   691 – Steward Observatory, Kitt Peak-Spacewatch MPS 339737
2010 07 13.35821 21 18 51.58 -20 23 41.2   691 – Steward Observatory, Kitt Peak-Spacewatch MPS 339737
2010 07 13.37593 21 18 50.83 -20 23 41.7   691 – Steward Observatory, Kitt Peak-Spacewatch MPS 339737
2010 07 17.65367 21 15 42.66 -20 26 24.6 19.7 V E12 – Siding Spring Survey MPS 343576
2010 07 17.70314 21 15 40.21 -20 26 27.0 19.1 V E12 – Siding Spring Survey MPS 343576
2010 07 17.71598 21 15 39.60 -20 26 27.3 19.7 V E12 – Siding Spring Survey MPS 343576
2010 07 17.72883 21 15 38.88 -20 26 27.6 18.9 V E12 – Siding Spring Survey MPS 343576
2010 08 03.29401 21 00 13.85 -20 36 58.5 19.4   704 – Lincoln Laboratory ETS, New Mexico MPS 343576
2010 08 03.30607 21 00 13.05 -20 36 59.4 19.7   704 – Lincoln Laboratory ETS, New Mexico MPS 343576
2010 08 03.31812 21 00 12.40 -20 37 00.1 19.5   704 – Lincoln Laboratory ETS, New Mexico MPS 343576
2010 08 03.33023 21 00 11.53 -20 37 00.4 19.4   704 – Lincoln Laboratory ETS, New Mexico MPS 343576
2010 08 03.34227 21 00 10.83 -20 37 01.1 19.4   704 – Lincoln Laboratory ETS, New Mexico MPS 343576
2010 08 03.453329 21 00 04.088 -20 37 01.36 18.82 r F51 – Pan-STARRS 1, Haleakala MPS 365213
2010 08 03.464292 21 00 03.386 -20 37 01.62 18.83 r F51 – Pan-STARRS 1, Haleakala MPS 365213
2010 08 18.356982 20 45 42.754 -20 32 40.03 20.26 r F51 – Pan-STARRS 1, Haleakala MPS 365213
2010 08 18.367948 20 45 42.199 -20 32 38.96 19.59 r F51 – Pan-STARRS 1, Haleakala MPS 365213
2013 03 06.41895 11 50 21.074 -03 11 10.69 20.3 w F51 – Pan-STARRS 1, Haleakala MPS 458981
2013 03 06.44815 11 50 19.423 -03 11 05.09 20.3 w F51 – Pan-STARRS 1, Haleakala MPS 458981
2013 03 06.46279 11 50 18.596 -03 11 02.37 20.3 w F51 – Pan-STARRS 1, Haleakala MPS 458981
2013 03 23.27135 11 34 10.74 -02 06 02.7 20.0 V G96 – Mt. Lemmon Survey MPS 461445
2013 03 23.28212 11 34 10.09 -02 05 59.8 20.4 V G96 – Mt. Lemmon Survey MPS 461445
2013 03 23.29294 11 34 09.44 -02 05 57.0 20.1 V G96 – Mt. Lemmon Survey MPS 461445
2013 03 23.30370 11 34 08.79 -02 05 54.4 19.9 V G96 – Mt. Lemmon Survey MPS 461445
2013 04 19.18429 11 13 49.98 -00 26 27.3 20.5 V G96 – Mt. Lemmon Survey MPS 464808
2013 04 19.19311 11 13 49.76 -00 26 26.8 21.8 V G96 – Mt. Lemmon Survey MPS 464808
2013 04 19.20208 11 13 49.44 -00 26 24.8 21.0 V G96 – Mt. Lemmon Survey MPS 464808
2013 04 19.21102 11 13 49.29 -00 26 23.4 21.8 V G96 – Mt. Lemmon Survey MPS 464808
2014 06 26.54990 22 46 35.615 -10 09 58.48 20.6 w F51 – Pan-STARRS 1, Haleakala MPS 521000
2014 06 26.56194 22 46 35.960 -10 09 54.86 20.6 w F51 – Pan-STARRS 1, Haleakala MPS 521000
2014 06 26.57398 22 46 36.295 -10 09 51.09 20.6 w F51 – Pan-STARRS 1, Haleakala MPS 521000
2014 06 26.58604 22 46 36.636 -10 09 47.48 20.6 w F51 – Pan-STARRS 1, Haleakala MPS 521000
2014 07 29.13199 22 47 05.89 -08 36 23.9 20.0 R J04 – ESA Optical Ground Station, Tenerife MPS 527748
2014 07 29.14368 22 47 05.48 -08 36 23.2 20.2 R J04 – ESA Optical Ground Station, Tenerife MPS 527748
2014 07 29.15537 22 47 05.13 -08 36 22.9 20.3 R J04 – ESA Optical Ground Station, Tenerife MPS 527748
2014 07 29.16706 22 47 04.75 -08 36 22.3 20.0 R J04 – ESA Optical Ground Station, Tenerife MPS 527748
2014 08 01.26205 22 45 25.21 -08 35 17.9 19.0 R G32 – Elena Remote Observatory, San Pedro de Atacama MPS 526319
2014 08 01.26708 22 45 25.02 -08 35 17.9 18.7 R G32 – Elena Remote Observatory, San Pedro de Atacama MPS 526319
